星链-3147 (STARLINK-3147 )

导读 | 豆包AI

STARLINK-3147是美国太空探索技术公司 SpaceX 星链(Starlink)卫星互联网项目的一颗卫星,于2021年11月13日发射,属于星链部署任务中的组网卫星,旨在为全球提供低延迟、高速率的宽带互联网服务,目前在近地轨道运行,支撑星链星座的服务覆盖能力。

基本信息
目录编号:
49410
目录名称:
STARLINK-3147
国际标识:
2021-104C
轨道中心:
EARTH
卫星名称:
星链-3147
卫星全名:
星链-3147 (STARLINK-3147 )
卫星状态:
在轨 (已飞行1629 天)
发射日期:
2021-11-13 UTC
国别 :
美国 (US)
星等 :
--
轨道信息
数据来源 国际轨道数据
星历时间: 2026-04-30T17:18:00+0800
14小时前
查看轨道信息
半长轴: 6917.877km
偏心率: 0.0001433
轨道倾角: 53.218°
近地点辐角 91.412°
升交点赤经 357.048°
平近点角 268.704°
近地点: 538.748km
远地点: 540.732km
周期: 95.437分钟
每日圈数: 15.088413
详细信息
固有亮度:
5
最大亮度:
2.5
卫星平台:
Starlink v1.5
覆盖范围:
全球
运营商:
太空探索技术公司
运营商所在国:
美国
制造商(研发单位):
太空探索技术公司
制造商所在国:
美国
使用方式:
暂无
卫星简介
星链(Starlink)计划是由太空探索技术公司(SpaceX)提出的一个巨型低轨卫星互联网星座项目,计划在2019年至2024年间在太空搭建由约1.2万颗卫星组成的“星链”网络,其中1584颗将部署在地球上空550千米处的近地轨道,并从2020年开始工作。该卫星仍在工作。
2D轨道图
3D轨道图
轨道高度分析图
轨道倾角分析图
轨道综合分析图
查看轨道综合分析图